Regional Weather Roundup
Issued by NWS

Home | Current Version | Previous Version | Graphics & Text | Print | Product List | Glossary On
Versions: 1 2 3 4 5 6 7 8 9 10 11 12 13 14 15 16 17 18 19 20 21 22 23 24 25 26 27 28 29 30 31 32 33 34 35 36 37 38 39 40 41 42 43 44 45 46 47 48 49 50
000
ASUS45 KPSR 250010
RWRAZ

ARIZONA HOURLY REGIONAL WEATHER ROUNDUP
NATIONAL WEATHER SERVICE PHOENIX AZ
500 PM MST TUE MAY 24 2016

NOTE: FAIR INDICATES FEW OR NO CLOUDS BELOW 12,000 FEET WITH NO
SIGNIFICANT WEATHER AND/OR OBSTRUCTIONS TO VISIBILITY.

AZZ001>003-036-250100-
NORTHWEST ARIZONA

CITY           SKY/WX    TMP DP  RH WIND       PRES   REMARKS
BULLHEAD CITY  SUNNY     84  21  10 S17G24    29.81S
KINGMAN          N/A    N/A N/A N/A MISG      29.92
$$

AZZ004>008-015-016-018-250100-
NORTH CENTRAL ARIZONA

CITY           SKY/WX    TMP DP  RH WIND       PRES   REMARKS
GRAND CANYON   SUNNY     65  12  12 SW23G35   30.01R
6HR MIN TEMP:  59; 6HR MAX TEMP:  67;

WILLIAMS       SUNNY     61  16  17 SW22G33   30.11S
PRESCOTT       SUNNY     69  19  15 SW18G28   30.00R
6HR MIN TEMP:  64; 6HR MAX TEMP:  71;

FLAGSTAFF      SUNNY     60  24  25 SW25G37   30.06S
6HR MIN TEMP:  55; 6HR MAX TEMP:  61;

PAYSON         SUNNY     70  19  14 SW12G24   30.05S
PAGE           MOSUNNY   76  16  10 SW9G24    29.82F
6HR MIN TEMP:  71; 6HR MAX TEMP:  78;

$$

AZZ009>014-017-250100-
NORTHEAST ARIZONA

CITY           SKY/WX    TMP DP  RH WIND       PRES   REMARKS
WINSLOW        SUNNY     75  13   9 SW21G33   29.96R
6HR MIN TEMP:  71; 6HR MAX TEMP:  78;

SAINT JOHNS    SUNNY     74  12   9 SW24G30   30.00R
6HR MIN TEMP:  72; 6HR MAX TEMP:  77;

WINDOW ROCK    SUNNY     70  12  10 SW21G31   30.03S
6HR MIN TEMP:  66; 6HR MAX TEMP:  72;

SHOW LOW       SUNNY     66  14  13 SW21G32   30.07R
$$

AZZ023-250100-
GREATER PHOENIX AREA

CITY           SKY/WX    TMP DP  RH WIND       PRES   REMARKS
PHOENIX        SUNNY     88  30  12 W15       29.83F
6HR MIN TEMP:  81; 6HR MAX TEMP:  90;

BUCKEYE        SUNNY     84  21  10 W12G17    29.87S
GLENDALE       SUNNY     88  34  14 S10G26    29.86F
LUKE AFB       SUNNY     87  30  12 SW16G23   29.84S
6HR MIN TEMP:  80; 6HR MAX TEMP:  88;

DEER VALLEY    SUNNY     85  29  13 SW14G28   29.86S
6HR MIN TEMP:  78; 6HR MAX TEMP:  88;

SCOTTSDALE     SUNNY     85  26  11 SW5       29.87F
6HR MIN TEMP:  78; 6HR MAX TEMP:  88;

MESA-FALCON    SUNNY    N/A N/A N/A SW9G17    29.83F
MESA-GATEWAY   SUNNY     86  28  12 W7        29.87S
CHANDLER       SUNNY     88  27  11 SW14G21   29.85S
$$

AZZ027-028-250100-
SOUTHWEST MARICOPA COUNTY AND PINAL COUNTY

CITY           SKY/WX    TMP DP  RH WIND       PRES   REMARKS
CASA GRANDE    SUNNY     88  28  11 W7G18     29.87S
6HR MIN TEMP:  81; 6HR MAX TEMP:  90;

GILA BEND      SUNNY     88  29  12 SW12      29.84S
6HR MIN TEMP:  81; 6HR MAX TEMP:  89;

$$

AZZ503-504-507>509-250100-
SOUTHEAST ARIZONA

CITY           SKY/WX    TMP DP  RH WIND       PRES   REMARKS
TUCSON         SUNNY     88  12   6 W15G24    29.93R
6HR MIN TEMP:  83; 6HR MAX TEMP:  90;

DAVIS-MONTHAN  SUNNY     87  13   6 W14G22    29.91R
6HR MIN TEMP:  82; 6HR MAX TEMP:  89;

RYAN FIELD     SUNNY     90  19   7 SW17      29.91S
NOGALES        SUNNY     83  16   8 SW17G26   30.00R
6HR MIN TEMP:  79; 6HR MAX TEMP:  86;

SIERRA VISTA   SUNNY     80  19  10 SW18      30.03S
6HR MIN TEMP:  76; 6HR MAX TEMP:  82;

DOUGLAS        SUNNY     85  22  10 W24G31    29.98S
6HR MIN TEMP:  80; 6HR MAX TEMP:  87;

SAFFORD        SUNNY     89  16   7 W17G29    29.87R
6HR MIN TEMP:  81; 6HR MAX TEMP:  92;

$$

AZZ020-021-025-026-031-250100-
SOUTHWEST ARIZONA

CITY           SKY/WX    TMP DP  RH WIND       PRES   REMARKS
YUMA           MOSUNNY   85  34  16 W13G18    29.86F
6HR MIN TEMP:  76; 6HR MAX TEMP:  86;

$$

CAZ031-033-041-043-047-048-061-250100-
SOUTHERN CALIFORNIA

CITY           SKY/WX    TMP DP  RH WIND       PRES   REMARKS
DOWNTOWN L.A.  SUNNY     66  52  60 VRB6      30.00S
6HR MIN TEMP:  64; 6HR MAX TEMP:  71;

L.A. AIRPORT   MOSUNNY   65  53  65 SW16      30.01S
6HR MIN TEMP:  64; 6HR MAX TEMP:  67;

SAN DIEGO      PTSUNNY   67  50  54 W12       30.05F
6HR MIN TEMP:  64; 6HR MAX TEMP:  68; 6HR PCP: TRACE;

BURBANK        MOSUNNY   67  47  48 S12       29.98S
6HR MIN TEMP:  63; 6HR MAX TEMP:  69;

ONTARIO        MOSUNNY   69  48  47 SW15      29.98S
6HR MIN TEMP:  63; 6HR MAX TEMP:  72;

RIVERSIDE      MOSUNNY   71  46  40 W14G22    29.97S
6HR MIN TEMP:  65; 6HR MAX TEMP:  74;

PALM SPRINGS   SUNNY     82  38  20 MISG      29.85F
6HR MIN TEMP:  76; 6HR MAX TEMP:  84;

EL CENTRO NAS  MOSUNNY   82  38  20 W26       29.88F
6HR MIN TEMP:  77; 6HR MAX TEMP:  85;

IMPERIAL       SUNNY     82  41  23 W18G31    29.85F
6HR MIN TEMP:  76; 6HR MAX TEMP:  86;

BLYTHE         SUNNY     85  27  12 SW23      29.84S
6HR MIN TEMP:  78; 6HR MAX TEMP:  86;

NEEDLES        SUNNY     88  23   9 W17       29.80F
6HR MIN TEMP:  82; 6HR MAX TEMP:  89;

$$

NVZ020-UTZ003-250100-
SOUTHERN NEVADA-UTAH

CITY           SKY/WX    TMP DP  RH WIND       PRES   REMARKS
LAS VEGAS      MOSUNNY   79  28  15 SW17G33   29.78S
6HR MIN TEMP:  72; 6HR MAX TEMP:  79;

SALT LAKE CITY CLOUDY    61  40  45 N8        29.90R
6HR MIN TEMP:  61; 6HR MAX TEMP:  72; 6HR PCP:  0.01;

$$

NMZ009-TXZ055-250100-
NEW MEXICO-WEST TEXAS

CITY           SKY/WX    TMP DP  RH WIND       PRES   REMARKS
ALBUQUERQUE    MOSUNNY   82  10   6 SW24G36   29.91S
6HR MIN TEMP:  73; 6HR MAX TEMP:  84;

EL PASO        MOSUNNY   89   9   5 SW14G24   29.92F
6HR MIN TEMP:  82; 6HR MAX TEMP:  91;

$$


........................KEY........................
SKY/WX - SKY CONDITION/WEATHER
TMP    - TEMPERATURE IN FAHRENHEIT
DP     - DEW POINT IN FAHRENHEIT
RH     - RELATIVE HUMIDITY IN PERCENT
WIND   - DIRECTION AND SPEED IN MILES PER HOUR (MPH)
VRB    - VARIABLE WIND DIRECTION
PRES   - MEAN SEA LEVEL PRESSURE IN INCHES OF MERCURY
         F - FALLING PRESSURE   R - RISING PRESSURE
         S - STEADY PRESSURE
VSB    - VISIBILITY IN MILES
HX     - HEAT INDEX IN FAHRENHEIT
WCI    - WIND CHILL INDEX IN FAHRENHEIT
TC     - TEMPERATURE IN CELSIUS WHICH IS ALSO KNOWN AS
         TEMPERATURE IN CENTIGRADE
AFB    - AIR FORCE BASE
         LUKE AFB IS LUKE AIR FORCE BASE
         DAVIS-MONTHAN IS DAVIS-MONTHAN AIR FORCE BASE
NAS    - NAVAL AIR STATION
         EL CENTRO NAS IS EL CENTRO NAVAL AIR STATION
N/A    - NOT AVAILABLE




USA.gov is the U.S. government's official web portal to all federal, state and local government web resources and services.